H1 CPF 2 NER 2024 6 13 9 165 01 glonass131 H2 1301901 9131 39155 2024 6 13 0 0 0 2024 6 16 23 45 0 900 1 1 0 0 0 1 H9 10 0 60474 0.00000 0 -23960302.939 -8429950.105 2728767.167 10 0 60474 900.00000 0 -23495771.129 -8129790.754 5891430.275 10 0 60474 1800.00000 0 -22635792.207 -7794313.141 8940220.610 10 0 60474 2700.00000 0 -21392589.256 -7479819.457 11816291.776 10 0 60474 3600.00000 0 -19791307.211 -7239819.959 14464169.730 10 0 60474 4500.00000 0 -17869101.670 -7122590.985 16832800.980 10 0 60474 5400.00000 0 -15673748.146 -7168963.879 18876515.232 10 0 60474 6300.00000 0 -13261828.894 -7410435.984 20555886.060 10 0 60474 7200.00000 0 -10696571.225 -7867681.586 21838474.980 10 0 60474 8100.00000 0 -8045424.871 -8549524.350 22699446.365 10 0 60474 9000.00000 0 -5377476.245 -9452414.198 23122042.659 10 0 60474 9900.00000 0 -2760803.939 -10560431.275 23097911.413 10 0 60474 10800.00000 0 -259882.199 -11845818.472 22627277.922 10 0 60474 11700.00000 0 2066862.524 -13270022.695 21718959.392 10 0 60474 12600.00000 0 4169242.579 -14785204.302 20390219.016 10 0 60474 13500.00000 0 6007157.939 -16336154.863 18666460.775 10 0 60474 14400.00000 0 7552026.483 -17862546.233 16580768.400 10 0 60474 15300.00000 0 8787735.757 -19301419.515 14173294.770 10 0 60474 16200.00000 0 9711075.524 -20589811.697 11490510.877 10 0 60474 17100.00000 0 10331631.512 -21667410.871 8584326.465 10 0 60474 18000.00000 0 10671143.147 -22479128.481 5511097.464 10 0 60474 18900.00000 0 10762350.679 -22977479.394 2330538.171 10 0 60474 19800.00000 0 10647379.068 -23124667.539 -895441.226 10 0 60474 20700.00000 0 10375726.240 -22894286.456 -4103948.882 10 0 60474 21600.00000 0 10001940.930 -22272559.858 -7232352.589 10 0 60474 22500.00000 0 9583089.418 -21259066.615 -10219522.282 10 0 60474 23400.00000 0 9176120.210 -19866916.593 -13007047.289 10 0 60474 24300.00000 0 8835240.766 -18122367.526 -15540402.163 10 0 60474 25200.00000 0 8609420.181 -16063897.406 -17770035.891 10 0 60474 26100.00000 0 8540126.515 -13740770.748 -19652360.894 10 0 60474 27000.00000 0 8659397.221 -11211159.089 -21150620.632 10 0 60474 27900.00000 0 8988326.521 -8539895.515 -22235617.534 10 0 60474 28800.00000 0 9536035.220 -5795958.778 -22886286.203 10 0 60474 29700.00000 0 10299167.221 -3049793.948 -23090100.612 10 0 60474 30600.00000 0 11261933.934 -370583.202 -22843307.744 10 0 60474 31500.00000 0 12396703.939 2176417.988 -22150984.086 10 0 60474 32400.00000 0 13665111.659 4532367.520 -21026915.218 10 0 60474 33300.00000 0 15019636.630 6647042.593 -19493302.519 10 0 60474 34200.00000 0 16405584.929 8480673.979 -17580304.510 10 0 60474 35100.00000 0 17763387.585 10005334.012 -15325423.689 10 0 60474 36000.00000 0 19031117.724 11205823.154 -12772752.607 10 0 60474 36900.00000 0 20147119.529 12080021.422 -9972095.584 10 0 60474 37800.00000 0 21052637.967 12638693.728 -6977984.622 10 0 60474 38700.00000 0 21694338.944 12904761.102 -3848609.758 10 0 60474 39600.00000 0 22026614.732 12912071.958 -644685.484 10 0 60474 40500.00000 0 22013579.170 12703728.051 2571724.454 10 0 60474 41400.00000 0 21630670.566 12330037.836 5738401.209 10 0 60474 42300.00000 0 20865796.900 11846184.735 8794161.363 10 0 60474 43200.00000 0 19719977.141 11309708.924 11680021.891 10 0 60474 44100.00000 0 18207453.257 10777908.172 14340318.504 10 0 60474 45000.00000 0 16355269.194 10305265.945 16723757.583 10 0 60474 45900.00000 0 14202334.611 9941013.238 18784383.440 10 0 60474 46800.00000 0 11798011.813 9726924.643 20482444.393 10 0 60474 47700.00000 0 9200283.312 9695439.366 21785142.937 10 0 60474 48600.00000 0 6473574.069 9868184.533 22667257.336 10 0 60474 49500.00000 0 3686316.084 10254961.832 23111623.996 10 0 60474 50400.00000 0 908353.338 10853239.907 23109472.014 10 0 60474 51300.00000 0 -1791708.458 11648174.608 22660603.569 10 0 60474 52200.00000 0 -4349100.387 12613157.959 21773415.993 10 0 60474 53100.00000 0 -6705331.779 13710875.294 20464763.749 10 0 60474 54000.00000 0 -8810375.013 14894829.204 18759661.011 10 0 60474 54900.00000 0 -10624503.855 16111269.522 16690828.166 10 0 60474 55800.00000 0 -12119708.838 17301451.296 14298088.353 10 0 60474 56700.00000 0 -13280629.998 18404128.341 11627623.029 10 0 60474 57600.00000 0 -14104966.633 19358179.172 8731098.517 10 0 60474 58500.00000 0 -14603345.262 20105255.348 5664678.524 10 0 60474 59400.00000 0 -14798649.541 20592340.181 2487940.438 10 0 60474 60300.00000 0 -14724838.804 20774108.331 -737284.114 10 0 60474 61200.00000 0 -14425304.008 20614984.239 -3948121.627 10 0 60474 62100.00000 0 -13950830.147 20090809.438 -7081897.365 10 0 60474 63000.00000 0 -13357251.790 19190044.937 -10077378.490 10 0 60474 63900.00000 0 -12702902.209 17914454.635 -12875993.188 10 0 60474 64800.00000 0 -12045966.122 16279238.001 -15422999.623 10 0 60474 65700.00000 0 -11441850.593 14312604.177 -17668579.433 10 0 60474 66600.00000 0 -10940688.132 12054804.010 -19568832.115 10 0 60474 67500.00000 0 -10585080.278 9556660.203 -21086648.980 10 0 60474 68400.00000 0 -10408179.359 6877657.567 -22192448.233 10 0 60474 69300.00000 0 -10432191.210 4083674.451 -22864755.996 10 0 60474 70200.00000 0 -10667362.959 1244451.698 -23090621.771 10 0 60474 71100.00000 0 -11111498.723 -1569093.508 -22865860.635 10 0 60474 72000.00000 0 -11750022.894 -4287595.326 -22195118.375 10 0 60474 72900.00000 0 -12556586.960 -6845893.694 -21091759.635 10 0 60474 73800.00000 0 -13494192.377 -9185504.545 -19577582.902 10 0 60474 74700.00000 0 -14516779.988 -11256803.284 -17682369.721 10 0 60474 75600.00000 0 -15571216.832 -13020831.847 -15443278.813 10 0 60474 76500.00000 0 -16599594.655 -14450656.183 -12904098.710 10 0 60474 77400.00000 0 -17541741.698 -15532220.365 -10114375.213 10 0 60474 78300.00000 0 -18337840.976 -16264665.098 -7128432.068 10 0 60474 79200.00000 0 -18931044.402 -16660100.981 -4004305.099 10 0 60474 80100.00000 0 -19269973.005 -16742849.660 -802611.298 10 0 60474 81000.00000 0 -19310998.925 -16548188.031 2414624.807 10 0 60474 81900.00000 0 -19020214.577 -16120650.905 5585164.847 10 0 60474 82800.00000 0 -18375007.894 -15511965.368 8647747.795 10 0 60474 83700.00000 0 -17365179.218 -14778704.622 11543256.624 10 0 60474 84600.00000 0 -15993554.502 -13979759.978 14215839.381 10 0 60474 85500.00000 0 -14276070.232 -13173736.431 16613964.781 10 0 60475 0.00000 0 -12241327.117 -12416379.767 18691393.842 10 0 60475 900.00000 0 -9929629.686 -11758140.914 20408052.014 10 0 60475 1800.00000 0 -7391553.409 -11241978.612 21730784.261 10 0 60475 2700.00000 0 -4686093.365 -10901489.245 22633984.078 10 0 60475 3600.00000 0 -1878471.347 -10759441.746 23100082.784 10 0 60475 4500.00000 0 962311.689 -10826777.725 23119891.610 10 0 60475 5400.00000 0 3766079.484 -11102118.768 22692789.857 10 0 60475 6300.00000 0 6464135.905 -11571802.459 21826754.896 10 0 60475 7200.00000 0 8991864.628 -12210447.339 20538232.067 10 0 60475 8100.00000 0 11291167.416 -12982025.501 18851845.070 10 0 60475 9000.00000 0 13312641.107 -13841400.587 16799949.997 10 0 60475 9900.00000 0 15017403.194 -14736269.409 14422039.000 10 0 60475 10800.00000 0 16378489.581 -15609428.126 11764002.435 10 0 60475 11700.00000 0 17381764.976 -16401269.511 8877261.316 10 0 60475 12600.00000 0 18026306.196 -17052407.129 5817784.908 10 0 60475 13500.00000 0 18324240.369 -17506315.732 2645011.181 10 0 60475 14400.00000 0 18300043.029 -17711875.368 -579309.545 10 0 60475 15300.00000 0 17989324.175 -17625709.637 -3792325.001 10 0 60475 16200.00000 0 17437152.621 -17214216.455 -6931320.898 10 0 60475 17100.00000 0 16695989.329 -16455202.167 -9934964.582 10 0 60475 18000.00000 0 15823317.805 -15339046.481 -12744525.980 10 0 60475 18900.00000 0 14879073.301 -13869345.753 -15305049.629 10 0 60475 19800.00000 0 13922981.670 -12063004.720 -17566452.411 10 0 60475 20700.00000 0 13011922.935 -9949770.751 -19484523.283 10 0 60475 21600.00000 0 12197433.567 -7571229.071 -21021803.522 10 0 60475 22500.00000 0 11523455.362 -4979300.822 -22148328.927 10 0 60475 23400.00000 0 11024427.779 -2234307.470 -22842218.599 10 0 60475 24300.00000 0 10723805.358 597316.332 -23090098.642 10 0 60475 25200.00000 0 10633063.000 3445564.391 -22887352.904 10 0 60475 26100.00000 0 10751230.454 6239547.501 -22238196.741 10 0 60475 27000.00000 0 11064974.243 8910215.439 -21155573.731 10 0 60475 27900.00000 0 11549221.567 11392998.231 -19660878.964 10 0 60475 28800.00000 0 12168297.464 13630256.471 -17783516.122 10 0 60475 29700.00000 0 12877524.730 15573439.328 -15560298.889 10 0 60475 30600.00000 0 13625216.698 17184861.821 -13034710.153 10 0 60475 31500.00000 0 14354976.711 18439029.536 -10256035.186 10 0 60475 32400.00000 0 15008205.737 19323458.449 -7278387.133 10 0 60475 33300.00000 0 15526711.435 19838958.982 -4159644.931 10 0 60475 34200.00000 0 15855308.433 19999375.927 -960325.139 10 0 60475 35100.00000 0 15944300.655 19830798.543 2257590.036 10 0 60475 36000.00000 0 15751742.150 19370276.875 5431845.891 10 0 60475 36900.00000 0 15245382.681 18664100.464 8501106.957 10 0 60475 37800.00000 0 14404217.855 17765713.097 11406125.284 10 0 60475 38700.00000 0 13219580.240 16733351.651 14090864.171 10 0 60475 39600.00000 0 11695726.913 15627507.682 16503557.378 10 0 60475 40500.00000 0 9849899.484 14508317.067 18597685.450 10 0 60475 41400.00000 0 7711854.032 13432985.258 20332852.424 10 0 60475 42300.00000 0 5322879.642 12453353.940 21675548.059 10 0 60475 43200.00000 0 2734344.725 11613708.682 22599782.666 10 0 60475 44100.00000 0 5829.045 10948917.434 23087583.704 10 0 60475 45000.00000 0 -2797083.953 10482976.245 23129345.326 10 0 60475 45900.00000 0 -5605266.299 10228022.330 22724024.275 10 0 60475 46800.00000 0 -8348657.560 10183855.870 21879177.763 10 0 60475 47700.00000 0 -10958924.558 10337991.516 20610841.275 10 0 60475 48600.00000 0 -13372061.001 10666239.144 18943246.754 10 0 60475 49500.00000 0 -15530820.881 11133791.742 16908384.214 10 0 60475 50400.00000 0 -17386885.299 11696777.299 14545412.593 10 0 60475 51300.00000 0 -18902672.480 12304211.881 11899928.577 10 0 60475 52200.00000 0 -20052714.503 12900273.768 9023105.047 10 0 60475 53100.00000 0 -20824541.599 13426804.140 5970713.869 10 0 60475 54000.00000 0 -21219034.954 13825929.219 2802050.573 10 0 60475 54900.00000 0 -21250231.108 14042692.531 -421218.837 10 0 60475 55800.00000 0 -20944584.237 14027584.371 -3636266.296 10 0 60475 56700.00000 0 -20339716.041 13738859.006 -6780340.848 10 0 60475 57600.00000 0 -19482705.247 13144538.447 -9792012.812 10 0 60475 58500.00000 0 -18427989.118 12224014.567 -12612396.510 10 0 60475 59400.00000 0 -17234966.570 10969178.390 -15186325.299 10 0 60475 60300.00000 0 -15965405.867 9385025.693 -17463453.509 10 0 60475 61200.00000 0 -14680768.583 7489710.863 -19399261.447 10 0 60475 62100.00000 0 -13439565.263 5314044.971 -20955941.901 10 0 60475 63000.00000 0 -12294856.703 2900458.255 -22103149.414 10 0 60475 63900.00000 0 -11292008.190 301470.543 -22818596.821 10 0 60475 64800.00000 0 -10466792.675 -2422265.630 -23088487.188 10 0 60475 65700.00000 0 -9843923.262 -5204266.191 -22907773.077 10 0 60475 66600.00000 0 -9436076.460 -7974763.351 -22280238.971 10 0 60475 67500.00000 0 -9243446.003 -10663392.359 -21218406.559 10 0 60475 68400.00000 0 -9253844.046 -13201904.054 -19743266.343 10 0 60475 69300.00000 0 -9443342.874 -15526789.517 -17883842.634 10 0 60475 70200.00000 0 -9777427.236 -17581707.556 -15676602.299 10 0 60475 71100.00000 0 -10212605.808 -19319614.753 -13164720.587 10 0 60475 72000.00000 0 -10698411.174 -20704510.873 -10397220.113 10 0 60475 72900.00000 0 -11179701.756 -21712729.212 -7428001.203 10 0 60475 73800.00000 0 -11599166.964 -22333720.921 -4314783.657 10 0 60475 74700.00000 0 -11899929.040 -22570303.731 -1117981.343 10 0 60475 75600.00000 0 -12028131.693 -22438367.986 2100468.117 10 0 60475 76500.00000 0 -11935406.940 -21966055.294 5278295.966 10 0 60475 77400.00000 0 -11581117.308 -21192446.767 8354094.590 10 0 60475 78300.00000 0 -10934280.423 -20165817.604 11268487.432 10 0 60475 79200.00000 0 -9975096.600 -18941532.090 13965255.338 10 0 60475 80100.00000 0 -8696016.615 -17579667.242 16392399.365 10 0 60475 81000.00000 0 -7102305.822 -16142463.751 18503121.531 10 0 60475 81900.00000 0 -5212081.259 -14691709.313 20256706.788 10 0 60475 82800.00000 0 -3055819.670 -13286161.708 21619291.189 10 0 60475 83700.00000 0 -675355.577 -11979116.978 22564503.276 10 0 60475 84600.00000 0 1877591.108 -10816222.021 23073967.739 10 0 60475 85500.00000 0 4543299.537 -9833620.972 23137662.412 10 0 60476 0.00000 0 7256269.289 -9056511.498 22754121.964 10 0 60476 900.00000 0 9947691.403 -8498170.282 21930483.482 10 0 60476 1800.00000 0 12548066.239 -8159489.617 20682372.405 10 0 60476 2700.00000 0 14989867.265 -8029044.139 19033628.416 10 0 60476 3600.00000 0 17210138.720 -8083687.603 17015874.645 10 0 60476 4500.00000 0 19152921.866 -8289656.364 14667935.692 10 0 60476 5400.00000 0 20771408.885 -8604135.487 12035113.112 10 0 60476 6300.00000 0 22029733.962 -8977223.668 9168329.845 10 0 60476 7200.00000 0 22904325.192 -9354215.704 6123158.185 10 0 60476 8100.00000 0 23384758.710 -9678107.008 2958748.718 10 0 60476 9000.00000 0 23474076.872 -9892214.192 -263319.658 10 0 60476 9900.00000 0 23188554.812 -9942799.755 -3480246.069 10 0 60476 10800.00000 0 22556923.317 -9781587.749 -6629245.976 10 0 60476 11700.00000 0 21619079.439 -9368061.086 -9648795.738 10 0 60476 12600.00000 0 20424338.740 -8671439.925 -12479857.034 10 0 60476 13500.00000 0 19029303.256 -7672253.951 -15067054.831 10 0 60476 14400.00000 0 17495436.319 -6363438.692 -17359783.476 10 0 60476 15300.00000 0 15886448.357 -4750906.692 -19313216.948 10 0 60476 16200.00000 0 14265606.095 -2853567.213 -20889201.598 10 0 60476 17100.00000 0 12693080.858 -702792.189 -22057012.483 10 0 60476 18000.00000 0 11223449.697 1658649.645 -22793957.627 10 0 60476 18900.00000 0 9903456.046 4178145.529 -23085818.171 10 0 60476 19800.00000 0 8770124.882 6795212.451 -22927116.151 10 0 60476 20700.00000 0 7849311.547 9443808.039 -22321205.553 10 0 60476 21600.00000 0 7154744.218 12054880.572 -21280186.162 10 0 60476 22500.00000 0 6687598.367 14559050.371 -19824643.492 10 0 60476 23400.00000 0 6436618.549 16889309.646 -17983221.691 10 0 60476 24300.00000 0 6378779.327 18983627.812 -15792039.618 10 0 60476 25200.00000 0 6480454.248 20787353.882 -13293963.318 10 0 60476 26100.00000 0 6699040.438 22255316.719 -10537750.793 10 0 60476 27000.00000 0 6984967.544 23353537.239 -7577087.236 10 0 60476 27900.00000 0 7284004.003 24060483.465 -4469530.669 10 0 60476 28800.00000 0 7539761.809 24367818.771 -1275389.355 10 0 60476 29700.00000 0 7696293.362 24280615.074 1943446.778 10 0 60476 30600.00000 0 7700670.851 23817024.993 5124698.126 10 0 60476 31500.00000 0 7505440.113 23007429.324 8206888.159 10 0 60476 32400.00000 0 7070846.783 21893097.540 11130514.859 10 0 60476 33300.00000 0 6366742.459 20524418.624 13839179.643 10 0 60476 34200.00000 0 5374092.231 18958776.651 16280653.675 10 0 60476 35100.00000 0 4086021.438 17258159.444 18407863.054 10 0 60476 36000.00000 0 2508358.423 15486598.889 20179775.980 10 0 60476 36900.00000 0 659650.485 13707547.858 21562176.843 10 0 60476 37800.00000 0 -1429348.572 11981300.824 22528314.133 10 0 60476 38700.00000 0 -3716699.740 10362563.230 23059411.103 10 0 60476 39600.00000 0 -6150768.979 8898268.629 23145030.173 10 0 60476 40500.00000 0 -8672127.441 7625732.677 22783284.243 10 0 60476 41400.00000 0 -11215786.277 6571219.685 21980890.292 10 0 60476 42300.00000 0 -13713676.670 5748981.054 20753062.985 10 0 60476 43200.00000 0 -16097275.243 5160806.069 19123248.475 10 0 60476 44100.00000 0 -18300268.333 4796104.874 17122701.164 10 0 60476 45000.00000 0 -20261145.977 4632521.800 14789908.974 10 0 60476 45900.00000 0 -21925618.347 4637055.238 12169875.562 10 0 60476 46800.00000 0 -23248753.507 4767638.939 9313270.848 10 0 60476 47700.00000 0 -24196745.946 4975119.843 6275464.281 10 0 60476 48600.00000 0 -24748239.855 5205550.044 3115458.141 10 0 60476 49500.00000 0 -24895149.208 5402696.394 -105259.134 10 0 60476 50400.00000 0 -24642937.589 5510660.900 -3323917.143 10 0 60476 51300.00000 0 -24010343.601 5476499.421 -6477700.923 10 0 60476 52200.00000 0 -23028561.491 5252725.325 -9504995.884 10 0 60476 53100.00000 0 -21739910.369 4799588.995 -12346613.876 10 0 60476 54000.00000 0 -20196047.780 4087033.300 -14946974.052 10 0 60476 54900.00000 0 -18455803.494 3096238.843 -17255213.045 10 0 60476 55800.00000 0 -16582726.124 1820690.554 -19226200.405 10 0 60476 56700.00000 0 -14642447.763 266718.022 -20821437.501 10 0 60476 57600.00000 0 -12699979.676 -1546515.077 -22009820.867 10 0 60476 58500.00000 0 -10817054.872 -3587573.010 -22768254.166 10 0 60476 59400.00000 0 -9049630.959 -5813838.039 -23082096.549 10 0 60476 60300.00000 0 -7445659.177 -8173082.257 -22945438.976 10 0 60476 61200.00000 0 -6043213.593 -10605454.239 -22361203.939 10 0 60476 62100.00000 0 -4869058.222 -13045795.957 -21341067.928 10 0 60476 63000.00000 0 -3937710.652 -15426191.671 -19905209.752 10 0 60476 63900.00000 0 -3251039.033 -17678640.974 -18081891.409 10 0 60476 64800.00000 0 -2798406.324 -19737743.513 -15906881.573 10 0 60476 65700.00000 0 -2557352.258 -21543283.009 -13422734.777 10 0 60476 66600.00000 0 -2494780.856 -23042603.059 -10677942.052 10 0 60476 67500.00000 0 -2568600.106 -24192676.624 -7725971.104 10 0 60476 68400.00000 0 -2729741.890 -24961784.506 -4624215.870 10 0 60476 69300.00000 0 -2924474.745 -25330734.990 -1432876.786 10 0 60476 70200.00000 0 -3096910.524 -25293576.267 1786206.065 10 0 60476 71100.00000 0 -3191598.620 -24857774.605 4970744.308 10 0 60476 72000.00000 0 -3156098.554 -24043853.357 8059194.513 10 0 60476 72900.00000 0 -2943423.357 -22884510.032 10991931.179 10 0 60476 73800.00000 0 -2514252.113 -21423249.844 13712378.208 10 0 60476 74700.00000 0 -1838820.093 -19712593.510 16168078.722 10 0 60476 75600.00000 0 -898408.433 -17811933.977 18311684.626 10 0 60476 76500.00000 0 313628.131 -15785130.446 20101848.931 10 0 60476 77400.00000 0 1791338.140 -13697938.286 21504005.722 10 0 60476 78300.00000 0 3516177.162 -11615379.566 22491024.531 10 0 60476 79200.00000 0 5457539.560 -9599161.090 23043727.996 10 0 60476 80100.00000 0 7573798.199 -7705244.821 23151263.646 10 0 60476 81000.00000 0 9813811.610 -5981669.445 22811322.891 10 0 60476 81900.00000 0 12118839.243 -4466711.945 22030202.475 10 0 60476 82800.00000 0 14424788.579 -3187464.678 20822705.978 10 0 60476 83700.00000 0 16664704.047 -2158886.941 19211885.425 10 0 60476 84600.00000 0 18771397.060 -1383371.097 17228625.641 10 0 60476 85500.00000 0 20680109.792 -850842.563 14911076.752 10 0 60477 0.00000 0 22331102.700 -539391.076 12303943.372 10 0 60477 900.00000 0 23672058.771 -416408.418 9457640.242 10 0 60477 1800.00000 0 24660200.902 -440186.806 6427332.200 10 0 60477 2700.00000 0 25264034.898 -561911.331 3271870.939 10 0 60477 3600.00000 0 25464640.277 -727963.414 52651.896 10 0 60477 4500.00000 0 25256452.769 -882437.491 -3167587.728 10 0 60477 5400.00000 0 24647502.678 -969763.317 -6326005.384 10 0 60477 6300.00000 0 23659096.590 -937320.883 -9360898.371 10 0 60477 7200.00000 0 22324954.008 -737934.416 -12212931.454 10 0 60477 8100.00000 0 20689834.243 -332136.708 -14826320.552 10 0 60477 9000.00000 0 18807711.259 309895.511 -17149946.951 10 0 60477 9900.00000 0 16739574.036 1206820.195 -19138377.903 10 0 60477 10800.00000 0 14550946.398 2365089.728 -20752771.695 10 0 60477 11700.00000 0 12309232.424 3778437.854 -21961648.009 10 0 60477 12600.00000 0 10081000.973 5427916.782 -22741507.588 10 0 60477 13500.00000 0 7929325.083 7282483.450 -23077288.769 10 0 60477 14400.00000 0 5911289.191 9300110.082 -22962652.332 10 0 60477 15300.00000 0 4075769.265 11429371.539 -22400089.841 10 0 60477 16200.00000 0 2461578.626 13611441.570 -21400854.709 10 0 60477 17100.00000 0 1096055.909 15782412.849 -19984718.859 10 0 60477 18000.00000 0 -5847.739 17875842.148 -18179561.558 10 0 60477 18900.00000 0 -841946.819 19825412.958 -16020800.314 10 0 60477 19800.00000 0 -1422652.583 21567603.448 -13550676.751 10 0 60477 20700.00000 0 -1770267.843 23044248.011 -10817413.153 10 0 60477 21600.00000 0 -1917778.818 24204885.794 -7874257.601 10 0 60477 22500.00000 0 -1907198.253 25008799.194 -4778437.483 10 0 60477 23400.00000 0 -1787532.381 25426658.800 -1590042.669 10 0 60477 24300.00000 0 -1612459.496 25441708.170 1629139.543 10 0 60477 25200.00000 0 -1437819.201 25050441.313 4816815.089 10 0 60477 26100.00000 0 -1319018.566 24262746.926 7911376.783 10 0 60477 27000.00000 0 -1308464.064 23101515.477 10853078.765 10 0 60477 27900.00000 0 -1453126.429 21601727.136 13585170.474 10 0 60477 28800.00000 0 -1792339.511 19809059.563 16054969.911 10 0 60477 29700.00000 0 -2355924.097 17778073.707 18214857.533 10 0 60477 30600.00000 0 -3162714.173 15570052.458 20023173.710 10 0 60477 31500.00000 0 -4219546.514 13250580.629 21445004.501 10 0 60477 32400.00000 0 -5520755.737 10886964.735 22452842.474 10 0 60477 33300.00000 0 -7048196.578 8545597.245 23027111.286 10 0 60477 34200.00000 0 -8771793.994 6289372.059 23156544.788 10 0 60477 35100.00000 0 -10650600.455 4175255.962 22838413.633 10 0 60477 36000.00000 0 -12634319.362 2252114.714 22078594.513 10 0 60477 36900.00000 0 -14665234.452 558882.552 20891479.506 10 0 60477 37800.00000 0 -16680468.203 -876849.597 19299725.478 10 0 60477 38700.00000 0 -18614478.288 -2039768.433 17333846.031 10 0 60477 39600.00000 0 -20401690.466 -2927255.443 15031651.272 10 0 60477 40500.00000 0 -21979159.662 -3549268.208 12437543.554 10 0 60477 41400.00000 0 -23289148.690 -3927689.207 9601680.242 10 0 60477 42300.00000 0 -24281516.201 -4095167.783 6579017.689 10 0 60477 43200.00000 0 -24915812.300 -4093502.554 3428253.395 10 0 60477 44100.00000 0 -25162991.615 -3971631.553 210686.123 10 0 60477 45000.00000 0 -25006668.928 -3783314.749 -3010983.787 10 0 60477 45900.00000 0 -24443861.522 -3584607.643 -6173889.755 10 0 60477 46800.00000 0 -23485184.041 -3431234.365 -9216244.380 10 0 60477 47700.00000 0 -22154485.225 -3375973.863 -12078568.546 10 0 60477 48600.00000 0 -20487940.077 -3466172.747 -14704877.873 10 0 60477 49500.00000 0 -18532634.803 -3741493.312 -17043800.897 10 0 60477 50400.00000 0 -16344704.139 -4231995.264 -19049604.743 10 0 60477 51300.00000 0 -13987100.205 -4956635.138 -20683106.272 10 0 60477 52200.00000 0 -11527088.076 -5922249.209 -21912449.395 10 0 60477 53100.00000 0 -9033574.963 -7123064.408 -22713732.363 10 0 60477 54000.00000 0 -6574386.805 -8540758.709 -23071472.528 10 0 60477 54900.00000 0 -4213607.853 -10145068.444 -22978899.692 10 0 60477 55800.00000 0 -2009095.603 -11894916.321 -22438073.178 10 0 60477 56700.00000 0 -10275.222 -13740011.503 -21459821.537 10 0 60477 57600.00000 0 1743694.990 -15622853.023 -20063507.672 10 0 60477 58500.00000 0 3225311.979 -17481050.811 -18276625.701 10 0 60477 59400.00000 0 4419614.546 -19249865.532 -16134239.352 10 0 60477 60300.00000 0 5324534.266 -20864859.580 -13678274.613 10 0 60477 61200.00000 0 5950699.636 -22264547.533 -10956682.235 10 0 60477 62100.00000 0 6320705.507 -23392934.978 -8022487.887 10 0 60477 63000.00000 0 6467882.217 -24201839.985 -4932749.688 10 0 60477 63900.00000 0 6434619.470 -24652901.226 -1747444.311 10 0 60477 64800.00000 0 6270318.161 -24719190.388 1471696.231 10 0 60477 65700.00000 0 6029058.277 -24386363.414 4662374.540 10 0 60477 66600.00000 0 5767082.024 -23653304.563 7762921.855 10 0 60477 67500.00000 0 5540198.329 -22532238.376 10713473.970 10 0 60477 68400.00000 0 5401217.286 -21048306.476 13457107.679 10 0 60477 69300.00000 0 5397521.280 -19238627.937 15940917.479 10 0 60477 70200.00000 0 5568873.342 -17150882.688 18117013.758 10 0 60477 71100.00000 0 5945553.178 -14841476.421 19943425.363 10 0 60477 72000.00000 0 6546897.765 -12373362.050 21384891.175 10 0 60477 72900.00000 0 7380306.882 -9813606.204 22413527.337 10 0 60477 73800.00000 0 8440755.168 -7230799.232 23009358.759 10 0 60477 74700.00000 0 9710831.936 -4692413.373 23160705.549 10 0 60477 75600.00000 0 11161308.765 -2262215.841 22864417.252 10 0 60477 76500.00000 0 12752213.664 2158.465 22125949.894 10 0 60477 77400.00000 0 14434369.959 2051375.878 20959283.210 10 0 60477 78300.00000 0 16151338.993 3846225.786 19386677.854 10 0 60477 79200.00000 0 17841688.752 5359020.127 17438274.967 10 0 60477 80100.00000 0 19441496.442 6574511.984 15151543.220 10 0 60477 81000.00000 0 20886982.479 7490294.001 12570581.345 10 0 60477 81900.00000 0 22117166.786 8116658.540 9745287.085 10 0 60477 82800.00000 0 23076436.107 8475923.769 6730406.557 10 0 60477 83700.00000 0 23716913.579 8601252.406 3584480.913 10 0 60477 84600.00000 0 24000529.035 8535011.659 368709.934 10 0 60477 85500.00000 0 23900700.179 8326742.911 -2854245.309 99